Simultaneous Nadir Overpasses (SNOs) Predictions

Prediction of SNOs between NOAA-20 and LANDSAT-8 Satellite Orbit:

Table of predicted SNOs for the next 14.0 days since TLE Epoch: 12/21/2024
Index Date (NOAA-20) Time (NOAA-20) Lat,Lon (NOAA-20) SZA (NOAA-20 ) Date (LANDSAT-8) Time (LANDSAT-8) Lat,Lon (LANDSAT-8) SZA (LANDSAT-8 ) Distance(km) Time Diff (sec)
1 12/21/2024 07:34:13 -70.91,-118.86 85.70 12/21/2024 07:35:19 -70.82,-116.37 85.84 91.40 66
2 12/21/2024 08:24:41 69.96, 49.96 93.32 12/21/2024 08:25:00 69.96, 50.01 93.32 1.99 19
3 12/21/2024 09:15:23 -69.86,-142.58 86.79 12/21/2024 09:14:30 -69.85,-142.52 86.80 2.69 53
4 12/23/2024 23:50:56 -70.04, -1.72 86.62 12/23/2024 23:52:04 -70.01, -1.69 86.66 3.24 68
5 12/24/2024 00:41:39 69.88, 165.83 93.22 12/24/2024 00:41:31 69.91, 165.81 93.25 3.21 8
6 12/24/2024 01:32:17 -69.56, -26.39 87.11 12/24/2024 01:31:04 -69.63, -26.94 87.03 22.46 73
7 12/26/2024 16:07:53 -69.96, 114.14 86.77 12/26/2024 16:08:33 -69.99, 114.16 86.76 2.58 40
8 12/26/2024 16:58:37 69.86, -78.40 93.13 12/26/2024 16:58:00 69.88, -78.35 93.14 2.50 37
9 12/29/2024 07:34:17 70.44, 61.84 93.60 12/29/2024 07:35:27 70.37, 62.95 93.49 42.21 70
10 12/29/2024 08:24:52 -69.96,-130.10 86.91 12/29/2024 08:25:03 -69.93,-130.04 86.94 3.34 11
11 12/29/2024 09:15:35 69.81, 37.44 92.94 12/29/2024 09:14:30 69.82, 37.45 92.96 1.66 65
12 12/31/2024 23:51:08 70.03, 178.24 92.98 12/31/2024 23:52:02 70.01, 178.31 92.95 3.64 54
13 01/01/2025 00:41:50 -69.91, -14.27 87.15 01/01/2025 00:41:32 -69.91, -14.20 87.15 2.75 18
14 01/01/2025 01:32:19 69.02, 154.32 91.93 01/01/2025 01:31:12 69.07, 152.33 92.05 79.51 67
15 01/03/2025 16:08:05 69.94, -65.88 92.65 01/03/2025 16:08:31 69.95, -65.89 92.66 0.86 26
16 01/03/2025 16:58:47 -69.82, 101.62 87.48 01/03/2025 16:58:01 -69.85, 101.61 87.45 3.44 46



Historial Predications of SNOs between NOAA-20 and LANDSAT-8
